Theta_e
305 305 305 305 303 303 303 303 303 304 304 305 305 305 306 307 308 305 305 304 302 300 300 299 299 297 296 295 295 295 293 293
304 304 304 304 303 303 303 302 303 305 303 302 303 304 305 307 306 305 303 302 302 300 300 298 297 296 294 294 293 293 294 294
302 303 303 304 304 304 302 303 303 306 303 303 304 304 305 307 305 303 302 302 301 300 298 297 296 295 293 292 293 292 291 292
300 302 303 303 303 304 304 304 304 305 304 304 305 307 307 305 303 301 301 301 301 299 299 297 295 294 293 291 291 291 289 291
301 302 302 303 304 305 305 305 305 305 304 304 305 305 305 306 303 301 300 301 300 300 298 297 295 294 293 293 292 290 290 289
302 302 304 305 305 305 305 305 306 306 305 305 305 305 306 306 303 300 298 298 300 300 298 296 294 294 292 292 290 290 290 290
304 303 303 303 303 303 304 305 306 306 305 304 305 304 304 303 300 298 297 298 300 299 297 295 294 293 293 292 291 290 289 289
302 301 302 302 303 303 305 305 306 306 304 304 303 303 305 304 300 299 299 300 297 295 296 296 296 296 295 292 291 289 287 285
299 300 302 303 304 304 306 306 306 305 304 304 304 304 303 302 302 301 300 298 299 298 297 295 295 294 291 289 288 287 285 284
299 300 301 303 304 305 305 306 306 305 303 304 302 303 300 299 299 300 300 299 297 296 294 293 293 292 289 287 285 283 283 283
300 301 301 302 303 304 304 304 304 304 303 300 298 298 298 299 298 296 295 295 294 294 292 291 289 288 288 285 283 283 282 281
300 301 302 302 302 303 304 304 302 299 298 298 297 296 297 296 295 294 294 293 294 292 291 288 287 286 284 283 282 282 281 280
299 300 301 302 302 302 301 300 298 297 297 296 295 295 294 293 292 292 293 291 291 290 289 287 286 285 283 282 281 281 280 280
298 299 299 298 298 297 297 296 295 295 294 293 293 292 292 291 290 290 290 288 287 287 287 285 284 283 282 281 281 280 280 280
297 296 295 295 295 294 294 294 294 293 292 291 291 290 289 289 289 288 287 286 285 285 285 284 283 282 282 282 281 280 279 279
294 293 293 293 292 292 292 292 291 290 290 289 289 289 288 287 285 285 285 284 284 284 284 283 283 283 283 281 279 279 278 278
293 293 293 292 290 289 289 288 289 290 288 287 287 286 285 284 284 283 282 281 281 282 281 282 281 283 284 283 281 278 278 277
292 292 291 290 289 288 287 287 288 288 286 286 285 285 284 283 282 281 280 279 279 280 280 280 280 281 283 283 282 278 277 277
291 290 289 288 287 287 287 287 286 285 284 284 284 283 282 281 281 279 278 278 278 279 279 280 280 281 283 282 281 277 276 277
Wind_Speed
14 13 12 12 8 8 8 7 8 7 5 5 4 3 2 3 4 4 6 5 6 6 5 5 5 5 6 5 6 5 3 4
13 11 10 9 7 8 10 10 8 6 3 4 3 4 2 2 3 6 6 6 6 6 4 5 5 5 5 5 3 6 7 7
12 10 11 13 13 10 8 9 8 6 5 3 4 4 2 2 3 4 6 6 6 6 5 5 5 4 6 5 6 3 3 5
15 14 15 12 13 13 12 10 9 6 6 5 4 5 4 2 1 2 3 6 6 6 6 5 5 4 4 4 4 5 3 3
13 15 15 16 14 10 10 8 9 7 8 6 7 5 4 4 3 3 4 5 6 6 6 5 5 3 4 2 3 2 2 3
16 20 19 15 13 11 8 8 8 7 7 7 6 5 3 3 3 6 4 3 5 6 6 5 4 3 2 1 1 2 2 0
12 10 10 11 8 8 8 10 9 7 8 7 8 8 6 5 4 4 3 3 3 5 5 4 3 3 3 3 4 6 5 5
12 15 14 12 13 11 10 11 10 7 7 6 7 8 8 7 5 5 5 3 2 4 3 4 4 4 6 6 7 8 8 6
5 7 11 12 14 13 13 13 9 7 7 5 3 6 4 4 5 5 4 4 4 5 7 8 7 7 7 6 6 5 5 5
7 7 8 10 12 13 12 8 6 7 8 7 6 6 6 7 8 8 6 6 7 9 8 8 7 7 6 6 5 5 5 4
7 6 4 7 8 7 8 8 9 10 11 9 9 10 10 11 11 12 11 9 10 9 7 7 6 6 6 6 4 5 5 4
6 6 5 4 7 9 11 13 14 13 13 12 13 11 13 12 12 11 10 10 7 6 6 6 6 6 5 5 5 5 5 5
7 7 9 10 11 11 13 14 16 14 14 14 13 13 12 12 11 10 9 7 6 5 5 5 5 5 5 6 6 5 5 6
8 9 11 11 12 13 13 14 16 14 14 14 13 12 12 11 10 9 7 6 5 5 5 6 6 6 6 5 5 5 6 6
9 9 11 12 12 13 14 14 14 14 14 14 13 12 11 10 8 7 6 5 6 5 5 7 6 5 6 6 6 6 6 6
9 10 11 12 13 13 13 13 13 13 14 13 12 10 9 8 7 6 5 6 5 5 6 6 5 6 5 5 5 5 6 7
11 11 13 13 12 12 12 12 12 13 13 13 10 9 8 7 6 6 7 6 6 6 6 6 5 5 10 11 8 5 6 6
12 12 12 11 11 12 12 12 12 12 12 10 9 8 7 6 6 7 6 6 6 6 5 5 4 4 8 9 10 4 5 6
12 11 11 10 11 11 11 11 11 11 10 9 7 7 7 6 7 6 6 5 5 4 4 4 3 2 5 9 9 4 4 5
Wind_Direction
181 177 171 170 171 164 149 155 157 147 124 108 97 96 86 111 111 106 102 93 89 85 72 54 41 50 34 25 37 27 34 348
183 173 164 162 169 161 165 161 173 142 128 126 108 147 156 112 108 120 111 104 94 85 80 70 49 62 54 30 30 27 17 355
177 170 174 179 175 174 169 174 168 170 143 143 147 143 128 107 110 108 116 113 103 95 94 76 68 70 51 44 44 23 13 15
180 179 184 179 182 180 178 176 173 170 148 115 83 77 69 82 104 103 117 112 102 103 95 93 73 72 66 53 43 51 29 5
179 184 186 189 187 181 175 169 171 176 157 143 137 146 158 194 142 149 123 115 113 104 98 92 88 82 77 61 44 62 93 28
183 193 191 184 174 174 169 165 173 168 169 164 151 158 156 116 126 133 116 96 104 101 104 105 93 86 89 85 1 28 35 155
196 186 165 171 154 158 158 171 186 173 168 174 170 168 149 137 140 133 127 106 94 88 99 97 100 79 41 4 8 27 23 38
180 170 172 164 166 165 172 180 191 180 163 169 175 170 165 172 145 139 145 132 91 75 62 39 41 45 55 56 58 56 49 53
146 156 167 168 173 174 182 185 185 155 149 157 150 115 120 127 131 134 119 102 78 68 78 81 61 57 64 66 58 58 57 50
110 134 157 165 171 183 186 162 131 125 110 106 90 101 100 100 93 95 89 84 86 87 81 72 65 77 69 74 64 51 45 32
60 57 132 160 158 143 124 117 112 109 101 96 89 87 86 84 78 77 82 76 81 69 72 86 73 72 77 74 59 36 41 8
50 35 28 98 108 113 111 109 109 101 99 98 93 86 85 83 83 81 80 76 76 80 87 84 81 78 66 64 63 33 24 1
60 54 61 72 88 96 104 107 104 102 101 96 91 90 87 85 82 84 82 91 84 94 100 102 93 82 65 56 41 17 9 -0
68 68 72 80 86 92 97 100 102 101 98 96 92 90 90 89 91 94 97 99 98 89 97 96 85 68 55 43 35 16 3 0
95 84 84 88 91 96 98 96 96 99 96 94 93 94 97 98 98 94 89 84 81 78 76 93 83 73 52 35 26 10 1 -0
108 108 102 100 96 94 93 93 94 98 96 94 96 97 95 91 83 79 76 67 67 70 82 84 82 65 45 30 22 7 2 350
122 118 113 109 108 104 100 97 99 102 101 102 104 100 96 93 93 84 70 66 65 75 73 81 69 64 40 26 25 359 353 338
137 131 121 118 115 114 107 106 106 102 104 107 106 108 105 98 89 77 76 73 73 84 86 86 78 58 33 16 4 338 325 321
139 131 119 115 113 109 111 110 109 110 109 113 116 110 105 98 85 88 87 80 83 108 103 95 79 39 15 12 2 318 318 314